�������l�o���
Date,Time,MP-1(��Sv/h),MP-2(��Sv/h),MP-3(��Sv/h),MP-4(��Sv/h),MP-5(��Sv/h),MP-6(��Sv/h),MP-7(��Sv/h),MP-8(��Sv/h),����,����(m/s),���J
2015/07/16,00:00,1.905,3.052,3.670,3.252,3.530,1.015,1.710,1.635,��,7.4,��
2015/07/16,00:10,1.905,3.050,3.670,3.252,3.537,1.017,1.710,1.637,��,7.7,��
2015/07/16,00:20,1.907,3.050,3.670,3.248,3.532,1.017,1.708,1.637,��,7.8,��
2015/07/16,00:30,1.907,3.050,3.675,3.247,3.530,1.017,1.710,1.637,��,7.7,��
2015/07/16,00:40,1.905,3.052,3.668,3.248,3.532,1.013,1.708,1.635,��,7.2,��
2015/07/16,00:50,1.907,3.053,3.667,3.247,3.528,1.013,1.708,1.637,��,7.1,��
2015/07/16,01:00,1.905,3.048,3.673,3.247,3.530,1.015,1.707,1.637,��,6.1,��
2015/07/16,01:10,1.908,3.050,3.672,3.248,3.532,1.015,1.708,1.635,��,4.8,��
2015/07/16,01:20,1.908,3.052,3.667,3.252,3.535,1.015,1.707,1.635,��,6.5,��
2015/07/16,01:30,1.907,3.048,3.673,3.252,3.533,1.013,1.710,1.638,��,8.2,�L
2015/07/16,01:40,1.910,3.050,3.673,3.250,3.532,1.015,1.710,1.637,��,9.9,�L
2015/07/16,01:50,1.907,3.050,3.672,3.248,3.528,1.015,1.708,1.638,��,9.9,�L
2015/07/16,02:00,1.907,3.047,3.668,3.248,3.525,1.013,1.708,1.637,��,8.3,�L
2015/07/16,02:10,1.905,3.043,3.668,3.247,3.525,1.015,1.703,1.633,��쐼,8.5,�L
2015/07/16,02:20,1.905,3.038,3.663,3.247,3.522,1.013,1.705,1.633,��쐼,8.8,�L
2015/07/16,02:30,1.907,3.043,3.660,3.243,3.515,1.012,1.707,1.633,��쐼,7.8,��
2015/07/16,02:40,1.902,3.040,3.662,3.245,3.517,1.012,1.707,1.635,��쐼,6.6,�L
2015/07/16,02:50,1.902,3.035,3.652,3.240,3.512,1.012,1.702,1.635,��쐼,5.1,�L
2015/07/16,03:00,1.903,3.032,3.645,3.240,3.502,1.010,1.705,1.632,��쐼,4.1,�L
2015/07/16,03:10,1.900,3.025,3.640,3.233,3.495,1.008,1.700,1.632,��쐼,4.1,�L
2015/07/16,03:20,1.898,3.023,3.637,3.230,3.483,1.007,1.698,1.632,��쐼,4.0,�L
2015/07/16,03:30,1.895,3.017,3.628,3.230,3.480,1.007,1.698,1.633,��쐼,3.4,�L
2015/07/16,03:40,1.893,3.013,3.625,3.230,3.480,1.005,1.697,1.628,��쐼,3.4,�L
2015/07/16,03:50,1.892,3.010,3.625,3.227,3.472,1.005,1.698,1.632,��,2.6,�L
2015/07/16,04:00,1.893,3.008,3.617,3.218,3.467,1.005,1.698,1.628,��,2.7,�L
2015/07/16,04:10,1.888,3.005,3.612,3.213,3.462,1.007,1.697,1.630,��,1.8,�L
2015/07/16,04:20,1.888,3.005,3.610,3.213,3.460,1.003,1.697,1.625,��,2.1,�L
2015/07/16,04:30,1.888,2.997,3.608,3.217,3.457,1.005,1.693,1.628,��,2.1,�L
2015/07/16,04:40,1.883,2.997,3.605,3.213,3.455,1.002,1.693,1.625,��,2.8,�L
2015/07/16,04:50,1.885,2.995,3.600,3.208,3.452,1.003,1.693,1.625,��,2.5,�L
2015/07/16,05:00,1.883,2.993,3.597,3.205,3.447,1.002,1.695,1.627,��,2.5,�L
2015/07/16,05:10,1.887,2.990,3.590,3.202,3.443,1.000,1.692,1.623,��,2.5,�L
2015/07/16,05:20,1.883,2.987,3.587,3.200,3.438,1.002,1.690,1.622,��,2.9,�L
2015/07/16,05:30,1.877,2.977,3.578,3.193,3.425,0.998,1.690,1.622,��,2.5,�L
2015/07/16,05:40,1.873,2.972,3.568,3.185,3.410,0.997,1.690,1.622,��,3.7,�L
2015/07/16,05:50,1.863,2.957,3.552,3.180,3.395,0.993,1.682,1.617,��쐼,5.7,�L
2015/07/16,06:00,1.858,2.947,3.540,3.163,3.375,0.993,1.677,1.615,�쐼,5.8,�L
2015/07/16,06:10,1.848,2.923,3.518,3.145,3.350,0.987,1.672,1.608,��쐼,3.7,�L
2015/07/16,06:20,1.847,2.915,3.512,3.135,3.338,0.987,1.672,1.610,��,2.7,�L
2015/07/16,06:30,1.843,2.915,3.510,3.127,3.335,0.985,1.672,1.607,��,1.9,�L
2015/07/16,06:40,1.840,2.908,3.497,3.115,3.323,0.985,1.667,1.603,��,1.4,�L
2015/07/16,06:50,1.837,2.902,3.488,3.103,3.317,0.983,1.665,1.602,��,0.8,�L
2015/07/16,07:00,1.832,2.895,3.478,3.092,3.308,0.980,1.662,1.602,-,CALM,�L
2015/07/16,07:10,1.830,2.883,3.472,3.085,3.293,0.977,1.662,1.600,���쓌,2.9,�L
2015/07/16,07:20,1.827,2.880,3.467,3.087,3.288,0.975,1.660,1.602,-,CALM,�L
2015/07/16,07:30,1.827,2.878,3.458,3.080,3.288,0.975,1.658,1.602,�k�k��,1.9,�L
2015/07/16,07:40,1.827,2.878,3.460,3.082,3.285,0.972,1.658,1.602,�k�k��,2.4,�L
2015/07/16,07:50,1.827,2.877,3.457,3.078,3.285,0.967,1.657,1.602,�k�k��,3.2,�L
2015/07/16,08:00,1.822,2.868,3.443,3.065,3.262,0.962,1.653,1.600,�k�k��,1.1,�L
2015/07/16,08:10,1.800,2.822,3.397,3.025,3.202,0.950,1.640,1.590,�k��,3.9,�L
2015/07/16,08:20,1.773,2.790,3.360,3.000,3.152,0.948,1.623,1.580,�k�k��,4.4,�L
2015/07/16,08:30,1.748,2.762,3.330,2.977,3.095,0.943,1.613,1.572,-,CALM,�L
2015/07/16,08:40,1.738,2.738,3.307,2.965,3.050,0.940,1.602,1.570,-,CALM,�L
2015/07/16,08:50,1.755,2.765,3.327,2.978,3.075,0.940,1.607,1.573,-,CALM,�L
2015/07/16,09:00,1.770,2.792,3.347,2.988,3.098,0.943,1.608,1.575,�k,3.2,�L
2015/07/16,09:10,1.780,2.802,3.350,2.997,3.108,0.943,1.613,1.577,���k��,2.0,�L
2015/07/16,09:20,1.773,2.787,3.332,2.985,3.075,0.940,1.608,1.568,���쓌,6.4,�L
2015/07/16,09:30,1.747,2.740,3.297,2.958,3.002,0.933,1.592,1.560,��쓌,5.6,�L
2015/07/16,09:40,1.740,2.720,3.277,2.945,2.962,0.928,1.587,1.560,-,CALM,�L
2015/07/16,09:50,1.735,2.728,3.282,2.952,2.955,0.932,1.583,1.560,���쓌,7.4,�L
2015/07/16,10:00,1.760,2.768,3.308,2.972,2.990,0.937,1.588,1.560,��,3.0,�L
2015/07/16,10:10,1.747,2.730,3.270,2.943,2.925,0.932,1.587,1.557,��,4.1,�L
2015/07/16,10:20,1.737,2.718,3.258,2.938,2.913,0.928,1.583,1.560,���쓌,3.7,�L
2015/07/16,10:30,1.733,2.710,3.238,2.927,2.877,0.928,1.578,1.555,�쓌,11.6,�L
2015/07/16,10:40,1.728,2.697,3.217,2.913,2.828,0.923,1.572,1.550,���k��,4.5,�L
2015/07/16,10:50,1.733,2.713,3.213,2.927,2.808,0.928,1.572,1.553,�쓌,10.7,�L
2015/07/16,11:00,1.743,2.727,3.210,2.930,2.798,0.930,1.578,1.557,�k,1.1,�L
2015/07/16,11:10,1.743,2.725,3.202,2.925,2.767,0.927,1.580,1.557,�쓌,14.9,�L
2015/07/16,11:20,1.740,2.723,3.187,2.927,2.743,0.927,1.573,1.553,�k��,4.2,�L
2015/07/16,11:30,1.730,2.712,3.163,2.915,2.702,0.923,1.572,1.550,�쓌,9.3,�L
2015/07/16,11:40,1.718,2.703,3.142,2.910,2.670,0.923,1.563,1.547,���k��,5.8,�L
2015/07/16,11:50,1.722,2.698,3.115,2.900,2.632,0.922,1.560,1.545,��,5.1,�L
2015/07/16,12:00,1.727,2.708,3.107,2.908,2.623,0.927,1.563,1.548,��쐼,6.5,�L
2015/07/16,12:10,1.738,2.723,3.108,2.922,2.630,0.928,1.567,1.552,��쓌,10.4,�L
2015/07/16,12:20,1.742,2.723,3.108,2.920,2.632,0.928,1.570,1.552,��,2.1,�L
2015/07/16,12:30,1.748,2.730,3.110,2.927,2.647,0.930,1.570,1.553,��쓌,8.5,�L
2015/07/16,12:40,1.747,2.727,3.108,2.928,2.652,0.930,1.573,1.555,�쓌,3.8,�L
2015/07/16,12:50,1.752,2.738,3.117,2.937,2.670,0.933,1.578,1.558,�k��,1.8,�L
2015/07/16,13:00,1.758,2.748,3.127,2.948,2.688,0.937,1.580,1.558,�k�k��,0.7,�L
2015/07/16,13:10,1.757,2.740,3.117,2.938,2.688,0.935,1.578,1.558,�k��,0.7,�L
2015/07/16,13:20,1.757,2.743,3.123,2.938,2.700,0.935,1.578,1.557,��,4.9,�L
2015/07/16,13:30,1.748,2.728,3.112,2.922,2.683,0.933,1.577,1.553,��쐼,6.0,�L
2015/07/16,13:40,1.752,2.737,3.117,2.930,2.698,0.935,1.577,1.555,�k�k��,1.3,�L
2015/07/16,13:50,1.753,2.747,3.127,2.940,2.718,0.935,1.583,1.560,��,1.4,�L
2015/07/16,14:00,1.758,2.733,3.125,2.933,2.713,0.933,1.582,1.557,�k,2.3,�L
2015/07/16,14:10,1.757,2.740,3.125,2.938,2.718,0.933,1.583,1.555,�k,2.5,�L
2015/07/16,14:20,1.752,2.733,3.115,2.930,2.708,0.932,1.583,1.555,�k,2.4,�L
2015/07/16,14:30,1.750,2.737,3.120,2.928,2.718,0.933,1.583,1.555,�쓌,1.6,�L
2015/07/16,14:40,1.748,2.733,3.122,2.932,2.720,0.933,1.582,1.553,�쓌,10.4,�L
2015/07/16,14:50,1.743,2.728,3.115,2.922,2.710,0.933,1.580,1.555,��쐼,2.1,�L
2015/07/16,15:00,1.743,2.730,3.113,2.920,2.708,0.932,1.577,1.553,��,2.8,�L
2015/07/16,15:10,1.747,2.735,3.122,2.927,2.715,0.935,1.582,1.558,��,6.0,�L
2015/07/16,15:20,1.752,2.733,3.122,2.930,2.720,0.935,1.580,1.557,���k��,9.9,�L
2015/07/16,15:30,1.750,2.727,3.113,2.917,2.707,0.933,1.577,1.552,���k��,9.9,�L
2015/07/16,15:40,1.737,2.717,3.102,2.903,2.678,0.927,1.568,1.545,���쐼,0.8,�L
2015/07/16,15:50,1.738,2.723,3.112,2.913,2.688,0.930,1.572,1.547,��,13.2,�L
2015/07/16,16:00,1.747,2.728,3.113,2.923,2.702,0.933,1.573,1.552,��,0.9,�L
2015/07/16,16:10,1.748,2.740,3.122,2.928,2.715,0.935,1.580,1.555,�쓌,1.9,�L
2015/07/16,16:20,1.757,2.755,3.142,2.940,2.737,0.937,1.583,1.562,-,CALM,��
2015/07/16,16:30,1.765,2.765,3.157,2.955,2.758,0.940,1.588,1.563,��,0.6,��
2015/07/16,16:40,1.770,2.773,3.170,2.963,2.775,0.940,1.592,1.563,-,CALM,��
2015/07/16,16:50,1.772,2.780,3.180,2.968,2.793,0.942,1.597,1.565,-,CALM,�L
2015/07/16,17:00,1.775,2.783,3.193,2.968,2.805,0.942,1.597,1.565,��쓌,1.0,�L
2015/07/16,17:10,1.777,2.787,3.203,2.975,2.823,0.942,1.597,1.567,��쓌,0.7,��
2015/07/16,17:20,1.778,2.785,3.208,2.975,2.837,0.942,1.602,1.567,��,1.5,��
2015/07/16,17:30,1.783,2.788,3.213,2.980,2.853,0.942,1.602,1.568,-,CALM,�L
2015/07/16,17:40,1.777,2.792,3.222,2.978,2.858,0.940,1.602,1.567,��쐼,1.1,��
2015/07/16,17:50,1.780,2.793,3.230,2.982,2.868,0.942,1.603,1.568,��쐼,1.1,��
2015/07/16,18:00,1.780,2.793,3.232,2.985,2.882,0.942,1.607,1.565,��,1.3,��
2015/07/16,18:10,1.783,2.793,3.237,2.985,2.890,0.945,1.610,1.567,��,1.4,��
2015/07/16,18:20,1.783,2.795,3.242,2.987,2.903,0.945,1.608,1.570,��,2.1,�L
2015/07/16,18:30,1.782,2.793,3.243,2.987,2.913,0.945,1.607,1.568,��쐼,1.1,�L
2015/07/16,18:40,1.777,2.790,3.242,2.987,2.907,0.945,1.608,1.568,��쐼,1.0,�L
2015/07/16,18:50,1.773,2.775,3.230,2.975,2.902,0.943,1.605,1.565,��쓌,1.8,�L
2015/07/16,19:00,1.772,2.777,3.232,2.975,2.913,0.942,1.603,1.567,��쓌,2.4,��
2015/07/16,19:10,1.772,2.780,3.238,2.978,2.920,0.943,1.608,1.567,��쓌,3.3,��
2015/07/16,19:20,1.773,2.783,3.247,2.983,2.927,0.943,1.608,1.568,��쓌,3.0,��
2015/07/16,19:30,1.775,2.787,3.255,2.980,2.938,0.947,1.608,1.570,��쓌,3.0,��
2015/07/16,19:40,1.778,2.790,3.257,2.985,2.942,0.943,1.610,1.570,��쓌,3.5,��
2015/07/16,19:50,1.777,2.797,3.260,2.987,2.947,0.943,1.610,1.572,��쓌,4.2,��
2015/07/16,20:00,1.775,2.793,3.262,2.987,2.955,0.947,1.613,1.570,��쓌,5.4,��
2015/07/16,20:10,1.780,2.793,3.267,2.988,2.962,0.948,1.617,1.570,��,6.9,��
2015/07/16,20:20,1.782,2.797,3.272,2.992,2.967,0.947,1.615,1.573,��,8.3,��
2015/07/16,20:30,1.782,2.800,3.273,2.993,2.968,0.948,1.615,1.573,��,9.1,��
2015/07/16,20:40,1.778,2.802,3.277,2.992,2.977,0.950,1.615,1.570,��,9.3,�L
2015/07/16,20:50,1.780,2.803,3.280,2.993,2.980,0.948,1.617,1.573,��,8.9,��
2015/07/16,21:00,1.782,2.798,3.278,2.998,2.983,0.948,1.615,1.572,��,8.5,��
2015/07/16,21:10,1.785,2.802,3.285,2.998,2.988,0.950,1.618,1.577,��,9.1,��
2015/07/16,21:20,1.783,2.805,3.287,3.000,2.995,0.948,1.620,1.577,��,8.5,��
2015/07/16,21:30,1.787,2.807,3.293,3.003,3.002,0.952,1.623,1.575,��,10.2,��
2015/07/16,21:40,1.788,2.807,3.298,3.002,3.005,0.950,1.622,1.578,��,9.9,��
2015/07/16,21:50,1.790,2.810,3.297,3.003,3.013,0.950,1.623,1.580,��,10.1,��
2015/07/16,22:00,1.787,2.807,3.297,3.002,3.013,0.952,1.623,1.577,��,10.2,��
2015/07/16,22:10,1.788,2.813,3.300,3.005,3.015,0.953,1.627,1.575,��,11.0,��
2015/07/16,22:20,1.788,2.812,3.307,3.007,3.020,0.955,1.625,1.577,��,9.9,��
2015/07/16,22:30,1.792,2.810,3.308,3.010,3.027,0.953,1.627,1.578,��,10.8,��
2015/07/16,22:40,1.790,2.813,3.310,3.010,3.028,0.955,1.630,1.578,��,10.1,��
2015/07/16,22:50,1.790,2.815,3.308,3.013,3.030,0.957,1.625,1.577,��,10.2,��
2015/07/16,23:00,1.787,2.812,3.305,3.012,3.030,0.955,1.625,1.578,��,8.8,��
2015/07/16,23:10,1.790,2.817,3.312,3.013,3.032,0.955,1.628,1.577,��,9.3,��
2015/07/16,23:20,1.793,2.817,3.313,3.015,3.038,0.955,1.630,1.580,��,9.9,��
2015/07/16,23:30,1.795,2.817,3.313,3.018,3.040,0.957,1.630,1.580,��쐼,9.7,��
2015/07/16,23:40,1.793,2.817,3.318,3.018,3.045,0.957,1.632,1.582,��,11.6,��
2015/07/16,23:50,1.795,2.823,3.318,3.023,3.043,0.957,1.630,1.580,��,11.0,��
